Lid_Strength_Index
16 16 16 16 17 17 17 15 17 15 16 14 14 14 13 14 15 15 14 14 14 14 15 15 15 15 14 14 14 13 13 13 13 13 14 14 15 16 16 16 16 17 17 17
18 17 17 18 17 16 16 15 15 16 17 13 13 14 14 14 14 14 14 13 13 14 14 15 14 14 14 13 13 13 12 12 13 13 14 15 16 16 16 17 17 17 17 17
17 19 18 18 18 17 17 16 14 17 13 16 15 15 14 14 14 14 14 14 13 13 13 13 13 12 12 12 13 13 13 14 15 15 15 16 17 17 18 18 17 17 17 17
23 20 22 19 21 17 16 16 17 18 19 16 14 15 15 15 14 15 14 13 12 12 12 12 12 12 12 12 13 13 14 15 16 16 17 18 18 18 18 18 18 17 17 17
21 21 19 20 21 18 17 18 17 15 16 17 17 18 18 16 15 14 14 13 13 12 12 13 13 13 13 14 14 14 14 15 16 17 18 18 19 18 18 18 18 18 17 18
22 22 22 20 19 19 18 21 20 16 17 19 19 21 18 17 16 15 15 14 13 13 13 13 13 13 14 14 15 15 14 15 16 17 19 19 18 18 18 19 18 18 18 18
20 20 19 18 19 18 20 18 19 19 18 18 19 17 16 16 16 15 14 13 13 13 13 13 13 14 14 15 15 14 16 16 17 17 18 18 19 19 20 20 19 21 20 20
20 21 21 18 18 18 16 17 17 17 17 17 16 16 15 15 14 13 13 13 12 13 13 13 14 15 15 15 15 16 16 17 18 20 18 19 22 21 22 22 22 22 22 21
17 18 17 16 16 15 15 16 16 16 16 15 16 15 15 14 14 13 13 13 13 13 13 13 15 14 14 14 16 17 18 20 21 21 20 20 22 21 20 21 22 21 20 20
18 19 18 16 15 15 14 15 15 14 14 15 14 14 14 14 14 13 14 14 14 15 15 14 16 15 14 16 17 19 21 21 21 21 20 21 19 19 21 21 21 20 20 20
20 18 17 16 14 13 13 14 14 14 13 13 13 14 14 14 14 14 14 14 16 15 14 13 16 16 18 18 19 20 21 20 20 21 21 19 19 18 18 18 19 22 20 19
20 16 15 14 12 12 12 12 13 13 14 14 13 13 13 14 14 14 14 16 16 15 15 16 18 19 19 20 19 20 20 20 20 20 19 19 19 19 16 13 12 11 9 10
14 13 12 11 11 11 12 12 12 13 13 13 13 13 14 14 15 15 17 17 17 15 17 19 19 19 20 20 20 20 21 20 20 19 19 19 20 20 21 18 15 13 11 10
12 12 13 12 12 12 12 12 13 14 14 14 13 16 15 16 19 19 19 19 20 21 22 23 22 20 21 22 23 24 24 20 21 20 20 21 21 21 21 22 23 21 17 14
12 11 11 11 13 13 14 15 16 15 15 16 18 16 17 18 20 19 22 22 21 23 24 23 24 25 27 26 25 26 24 23 22 22 22 21 21 21 22 22 22 22 21 19
13 13 14 13 13 14 15 17 15 13 15 17 18 19 18 19 22 24 25 27 23 24 28 27 26 26 28 27 27 27 26 21 22 23 23 22 22 22 22 22 23 23 22 22
15 16 20 17 14 14 14 13 12 13 16 16 17 20 22 25 27 29 33 33 30 29 30 28 27 29 31 29 28 27 27 27 24 26 26 25 24 23 22 23 24 24 23 20
11 12 13 13 13 13 15 14 15 17 18 19 21 23 25 25 25 29 33 35 32 31 32 32 32 32 33 33 31 29 29 28 29 29 26 25 25 24 24 24 24 24 22 21
15 13 15 15 17 17 19 20 22 22 22 23 23 25 26 27 28 32 35 32 33 31 29 34 22 31 32 32 30 29 28 30 29 28 26 25 25 25 25 26 25 25 23 22
22 22 20 23 24 25 25 26 25 26 28 27 27 28 31 36 35 34 38 32 33 30 34 35 35 33 33 32 26 29 30 28 27 28 28 28 27 25 26 26 26 25 25 24
27 25 24 25 27 28 28 28 26 28 30 29 27 29 31 38 38 37 30 28 30 35 34 29 32 30 31 30 29 32 32 30 28 27 28 28 28 26 25 26 25 24 23 23
31 29 27 28 29 32 32 31 29 30 29 30 30 31 32 32 35 35 33 28 30 27 30 31 31 30 29 26 27 28 28 27 26 23 24 24 24 23 23 23 23 23 23 25
32 31 29 29 30 33 32 31 30 29 30 30 30 31 27 25 26 24 27 30 31 29 29 29 27 23 21 23 25 26 25 26 25 22 22 22 22 22 22 23 23 23 25 27
35 33 34 34 33 30 30 33 34 33 32 30 29 26 24 24 26 29 29 27 26 26 29 28 25 16 21 27 28 27 28 26 22 22 21 21 21 22 23 24 24 25 27 28
34 35 34 32 30 30 32 33 28 26 26 27 27 27 27 26 26 27 30 28 25 26 28 25 18 18 28 29 29 27 26 23 22 22 22 23 23 24 24 25 27 28 28 28
33 32 31 30 28 27 26 25 26 26 25 26 27 29 31 31 28 28 28 27 28 27 28 28 28 28 28 27 27 26 24 24 23 22 23 23 23 24 25 26 27 28 28 28
29 27 28 27 27 29 29 29 29 28 28 30 30 32 32 32 31 28 28 28 27 27 27 29 27 25 27 27 25 25 24 23 23 23 23 24 24 25 26 27 27 27 28 29